Year,Month,Day,Hour,Minute,Value (Times are PST for temperature in C)
2018,04,22,07,40,2.80
2018,04,22,07,41,2.90
2018,04,22,07,42,2.90
2018,04,22,07,43,2.90
2018,04,22,07,45,2.90
2018,04,22,07,46,2.90
2018,04,22,07,47,3.00
2018,04,22,07,48,3.00
2018,04,22,07,50,3.00
2018,04,22,07,51,3.00
2018,04,22,07,52,3.10
2018,04,22,07,53,3.10
2018,04,22,07,54,3.10
2018,04,22,07,55,3.10
2018,04,22,07,57,3.10
2018,04,22,07,58,3.20
2018,04,22,07,59,3.20
2018,04,22,08,00,3.20
2018,04,22,08,01,3.20
2018,04,22,08,02,3.20
2018,04,22,08,03,3.30
2018,04,22,08,05,3.30
2018,04,22,08,06,3.30
2018,04,22,08,07,3.30
2018,04,22,08,08,3.30
2018,04,22,08,09,3.40
2018,04,22,08,10,3.40
2018,04,22,08,11,3.40
2018,04,22,08,12,3.40
2018,04,22,08,13,3.40
2018,04,22,08,15,3.40
2018,04,22,08,16,3.40
2018,04,22,08,17,3.40
2018,04,22,08,18,3.40
2018,04,22,08,19,3.50
2018,04,22,08,20,3.50
2018,04,22,08,21,3.60
2018,04,22,08,22,3.60
2018,04,22,08,23,3.60
2018,04,22,08,24,3.60
2018,04,22,08,25,3.60
2018,04,22,08,26,3.70
2018,04,22,08,27,3.70
2018,04,22,08,28,3.70
2018,04,22,08,29,3.70
2018,04,22,08,30,3.70
2018,04,22,08,31,3.70
2018,04,22,08,32,3.70
2018,04,22,08,34,3.60
2018,04,22,08,35,3.60
2018,04,22,08,36,3.60
2018,04,22,08,38,3.60
2018,04,22,08,39,3.60
2018,04,22,08,40,3.60
2018,04,22,08,41,3.60
2018,04,22,08,42,3.70
2018,04,22,08,43,3.70
2018,04,22,08,45,3.70
2018,04,22,08,46,3.70
2018,04,22,08,47,3.80
2018,04,22,08,48,3.80
2018,04,22,08,49,3.80
2018,04,22,08,50,3.80
2018,04,22,08,51,3.80
2018,04,22,08,53,3.90
2018,04,22,08,54,3.90
2018,04,22,08,56,3.90
2018,04,22,08,57,3.90
2018,04,22,08,58,3.90
2018,04,22,09,00,3.90
2018,04,22,09,01,3.90
2018,04,22,09,02,4.00
2018,04,22,09,03,4.00
2018,04,22,09,04,4.00
2018,04,22,09,05,4.00
2018,04,22,09,06,4.10
2018,04,22,09,07,4.10
2018,04,22,09,08,4.10
2018,04,22,09,09,4.10
2018,04,22,09,10,4.20
2018,04,22,09,12,4.20
2018,04,22,09,13,4.20
2018,04,22,09,14,4.30
2018,04,22,09,15,4.30
2018,04,22,09,16,4.30
2018,04,22,09,17,4.30
2018,04,22,09,18,4.30
2018,04,22,09,19,4.30
2018,04,22,09,20,4.40
2018,04,22,09,21,4.40
2018,04,22,09,23,4.40
2018,04,22,09,25,4.40
2018,04,22,09,26,4.50
2018,04,22,09,27,4.50
2018,04,22,09,28,4.50
2018,04,22,09,29,4.60
2018,04,22,09,31,4.60
2018,04,22,09,32,4.60
2018,04,22,09,33,4.70
2018,04,22,09,34,4.70
2018,04,22,09,35,4.70
2018,04,22,09,37,4.70
2018,04,22,09,38,4.70
2018,04,22,09,39,4.70
2018,04,22,09,40,4.70
2018,04,22,09,42,4.80
2018,04,22,09,43,4.80
2018,04,22,09,44,4.80
2018,04,22,09,45,4.90
2018,04,22,09,46,4.90
2018,04,22,09,47,4.90
2018,04,22,09,48,4.90
2018,04,22,09,49,4.90
2018,04,22,09,50,4.90
2018,04,22,09,51,5.00
2018,04,22,09,52,5.00
2018,04,22,09,54,5.10
2018,04,22,09,55,5.10
2018,04,22,09,56,5.10
2018,04,22,09,57,5.00
2018,04,22,09,58,5.00
2018,04,22,09,59,5.00
2018,04,22,10,00,5.10
2018,04,22,10,01,5.10
2018,04,22,10,02,5.10
2018,04,22,10,03,5.10
2018,04,22,10,04,5.20
2018,04,22,10,05,5.20
2018,04,22,10,07,5.30
2018,04,22,10,09,5.30
2018,04,22,10,10,5.30
2018,04,22,10,12,5.30
2018,04,22,10,14,5.50
2018,04,22,10,15,5.70
2018,04,22,10,16,5.80
2018,04,22,10,17,5.80
2018,04,22,10,18,5.90
2018,04,22,10,20,6.10
2018,04,22,10,21,6.10
2018,04,22,10,23,6.20
2018,04,22,10,24,6.30
2018,04,22,10,25,6.30
2018,04,22,10,27,6.50
2018,04,22,10,28,6.60
2018,04,22,10,29,6.70
2018,04,22,10,30,6.80
2018,04,22,10,31,6.80
2018,04,22,10,32,6.90
2018,04,22,10,33,6.90
2018,04,22,10,34,7.00
2018,04,22,10,35,7.10
2018,04,22,10,36,7.10
2018,04,22,10,37,7.20
2018,04,22,10,38,7.20
2018,04,22,10,39,7.30
2018,04,22,10,40,7.30
2018,04,22,10,41,7.30
2018,04,22,10,42,7.30
2018,04,22,10,43,7.30
2018,04,22,10,45,7.40
2018,04,22,10,46,7.40
2018,04,22,10,47,7.60
2018,04,22,10,48,7.60
2018,04,22,10,49,7.70
2018,04,22,10,50,7.80
2018,04,22,10,51,7.90
2018,04,22,11,24,8.40
2018,04,22,11,25,8.50
2018,04,22,11,26,8.60
2018,04,22,11,27,8.60
2018,04,22,11,28,8.70
2018,04,22,11,29,8.70
2018,04,22,11,30,8.70
2018,04,22,11,31,8.80
2018,04,22,11,32,8.80
2018,04,22,11,33,8.80
2018,04,22,11,34,8.90
2018,04,22,11,35,8.90
2018,04,22,11,36,9.00
2018,04,22,11,37,9.10
2018,04,22,11,38,9.20
2018,04,22,11,39,9.30
2018,04,22,11,40,9.40
2018,04,22,11,41,9.60
2018,04,22,11,42,9.70
2018,04,22,11,43,9.80
2018,04,22,11,44,10.00
2018,04,22,11,45,10.10
2018,04,22,11,46,10.20
2018,04,22,11,47,10.30
2018,04,22,11,48,10.30
2018,04,22,11,49,10.40
2018,04,22,11,50,10.40
2018,04,22,11,51,10.40
2018,04,22,11,52,10.50
2018,04,22,11,53,10.50
2018,04,22,11,55,10.60
2018,04,22,11,56,10.70
2018,04,22,11,57,10.70
2018,04,22,11,58,10.70
2018,04,22,11,59,10.80
2018,04,22,12,00,10.90
2018,04,22,12,01,10.90
2018,04,22,12,03,11.00
2018,04,22,12,04,11.00
2018,04,22,12,05,11.10
2018,04,22,12,06,11.20
2018,04,22,12,07,11.20
2018,04,22,12,08,11.30
2018,04,22,12,09,11.30
2018,04,22,12,10,11.40
2018,04,22,12,11,11.60
2018,04,22,12,12,11.70
2018,04,22,12,13,11.70
2018,04,22,12,14,11.80
2018,04,22,12,16,12.10
2018,04,22,12,17,12.10
2018,04,22,12,18,12.20
2018,04,22,12,20,12.20
2018,04,22,12,21,12.30
2018,04,22,12,22,12.30
2018,04,22,12,23,12.30
2018,04,22,12,24,12.30
2018,04,22,12,25,12.30
2018,04,22,12,26,12.30
2018,04,22,12,27,12.30
2018,04,22,12,28,12.30
2018,04,22,12,29,12.30
2018,04,22,12,30,12.30
2018,04,22,12,31,12.30
2018,04,22,12,33,12.40
2018,04,22,12,34,12.30
2018,04,22,12,35,12.40
2018,04,22,12,36,12.40
2018,04,22,12,38,12.50
2018,04,22,12,39,12.60
2018,04,22,12,40,12.70
2018,04,22,12,41,12.70
2018,04,22,12,42,12.80
2018,04,22,12,43,12.80
2018,04,22,12,45,12.80
2018,04,22,12,47,12.80
2018,04,22,12,48,12.80
2018,04,22,12,50,12.80
2018,04,22,12,51,12.80
2018,04,22,12,53,12.90
2018,04,22,12,54,13.00
2018,04,22,12,55,13.10
2018,04,22,12,56,13.10
2018,04,22,12,58,13.30
2018,04,22,12,59,13.30
2018,04,22,13,00,13.40
2018,04,22,13,01,13.40
2018,04,22,13,02,13.40
2018,04,22,13,03,13.50
2018,04,22,13,04,13.50
2018,04,22,13,05,13.60
2018,04,22,13,06,13.70
2018,04,22,13,07,13.70
2018,04,22,13,08,13.80
2018,04,22,13,09,13.80
2018,04,22,13,10,13.80
2018,04,22,13,12,13.80
2018,04,22,13,14,13.80
2018,04,22,13,15,13.80
2018,04,22,13,16,13.90
2018,04,22,13,17,13.90
2018,04,22,13,18,13.90
2018,04,22,13,19,13.90
2018,04,22,13,21,13.90
2018,04,22,13,23,13.90
2018,04,22,13,24,14.00
2018,04,22,13,25,14.00
2018,04,22,13,27,14.10
2018,04,22,13,28,14.10
2018,04,22,13,29,14.10
2018,04,22,13,30,14.20
2018,04,22,13,31,14.20
2018,04,22,13,33,14.20
2018,04,22,13,35,14.20
2018,04,22,13,36,14.20
2018,04,22,13,37,14.30
2018,04,22,13,38,14.30
2018,04,22,13,39,14.40
2018,04,22,13,40,14.40
2018,04,22,13,41,14.50
2018,04,22,13,43,14.60
2018,04,22,13,44,14.60
2018,04,22,13,45,14.70
2018,04,22,13,46,14.70
2018,04,22,13,47,14.70
2018,04,22,13,48,14.80
2018,04,22,13,49,14.80
2018,04,22,13,50,14.80
2018,04,22,13,51,14.80
2018,04,22,13,52,14.80
2018,04,22,13,53,14.80
2018,04,22,13,55,14.80
2018,04,22,13,57,14.80
2018,04,22,13,58,14.80
2018,04,22,13,59,14.80
2018,04,22,14,01,14.90
2018,04,22,14,02,15.00
2018,04,22,14,03,15.00
2018,04,22,14,04,15.10
2018,04,22,14,05,15.10
2018,04,22,14,06,15.00
2018,04,22,14,07,15.00
2018,04,22,14,09,15.00
2018,04,22,14,10,14.90
2018,04,22,14,12,14.90
2018,04,22,14,14,15.00
2018,04,22,14,15,15.00
2018,04,22,14,16,15.00
2018,04,22,14,17,15.00
2018,04,22,14,18,15.00
2018,04,22,14,19,15.10
2018,04,22,14,20,15.00
2018,04,22,14,21,15.00
2018,04,22,14,22,15.00
2018,04,22,14,23,15.00
2018,04,22,14,24,15.10
2018,04,22,14,25,15.10
2018,04,22,14,26,15.20
2018,04,22,14,28,15.40
2018,04,22,14,29,15.40
2018,04,22,14,31,15.60
2018,04,22,14,32,15.60
2018,04,22,14,33,15.70
2018,04,22,14,35,15.70
2018,04,22,14,36,15.70
2018,04,22,14,37,15.70
2018,04,22,14,38,15.70
2018,04,22,14,39,15.70
2018,04,22,14,40,15.70
2018,04,22,14,41,15.70
2018,04,22,14,43,15.80
2018,04,22,14,44,15.80
2018,04,22,14,46,16.00
2018,04,22,14,47,16.00
2018,04,22,14,48,16.10
2018,04,22,14,49,16.10
2018,04,22,14,51,16.10
2018,04,22,14,53,16.00
2018,04,22,14,54,16.10
2018,04,22,14,55,16.10
2018,04,22,14,56,16.10
2018,04,22,14,57,16.20
2018,04,22,14,58,16.30
2018,04,22,14,59,16.30
2018,04,22,15,01,16.20
2018,04,22,15,02,16.30
2018,04,22,15,03,16.30
2018,04,22,15,05,16.30
2018,04,22,15,06,16.30
2018,04,22,15,07,16.30
2018,04,22,15,09,16.10
2018,04,22,15,11,16.10
2018,04,22,15,12,16.10
2018,04,22,15,13,16.00
2018,04,22,15,14,15.90
2018,04,22,15,15,15.80
2018,04,22,15,16,15.80
2018,04,22,15,18,15.80
2018,04,22,15,19,15.90
2018,04,22,15,20,15.90
2018,04,22,15,21,15.90
2018,04,22,15,22,15.90
2018,04,22,15,24,15.90
2018,04,22,15,25,15.90
2018,04,22,15,27,16.00
2018,04,22,15,28,16.00
2018,04,22,15,29,16.00
2018,04,22,15,31,16.10
2018,04,22,15,33,15.90
2018,04,22,15,34,15.80
2018,04,22,15,35,15.80
2018,04,22,15,36,15.80
2018,04,22,15,38,15.80
2018,04,22,15,39,15.80
2018,04,22,15,40,15.80
2018,04,22,15,41,15.80
2018,04,22,15,42,15.70
2018,04,22,15,43,15.70
2018,04,22,15,44,15.60
2018,04,22,15,45,15.60
2018,04,22,15,46,15.60
2018,04,22,15,47,15.60
2018,04,22,15,48,15.60
2018,04,22,15,49,15.60
2018,04,22,15,50,15.50
2018,04,22,15,51,15.50
2018,04,22,15,53,15.40
2018,04,22,15,54,15.40
2018,04,22,15,55,15.40
2018,04,22,15,57,15.50
2018,04,22,15,58,15.60
2018,04,22,15,59,15.60
2018,04,22,16,00,15.60
2018,04,22,16,01,15.50
2018,04,22,16,02,15.40
2018,04,22,16,03,15.40
2018,04,22,16,04,15.30
2018,04,22,16,05,15.30
2018,04,22,16,06,15.30
2018,04,22,16,07,15.30
2018,04,22,16,08,15.30
2018,04,22,16,09,15.30
2018,04,22,16,11,15.30
2018,04,22,16,12,15.30
2018,04,22,16,13,15.40
2018,04,22,16,14,15.40
2018,04,22,16,15,15.50
2018,04,22,16,17,15.50
2018,04,22,16,18,15.50
2018,04,22,16,19,15.50
2018,04,22,16,20,15.50
2018,04,22,16,21,15.50
2018,04,22,16,22,15.50
2018,04,22,16,24,15.50
2018,04,22,16,25,15.40
2018,04,22,16,27,15.30
2018,04,22,16,28,15.30
2018,04,22,16,30,15.30
2018,04,22,16,31,15.30
2018,04,22,16,32,15.40
2018,04,22,16,33,15.40
2018,04,22,16,34,15.40
2018,04,22,16,35,15.40
2018,04,22,16,36,15.40
2018,04,22,16,38,15.40
2018,04,22,16,39,15.30
2018,04,22,16,40,15.30
2018,04,22,16,41,15.30
2018,04,22,16,42,15.30
2018,04,22,16,44,15.30
2018,04,22,16,46,15.30
2018,04,22,16,47,15.40
2018,04,22,16,48,15.40
2018,04,22,16,49,15.50
2018,04,22,16,50,15.60
2018,04,22,16,51,15.60
2018,04,22,16,52,15.60
2018,04,22,16,53,15.70
2018,04,22,16,54,15.70
2018,04,22,16,55,15.70
2018,04,22,16,56,15.70
2018,04,22,16,57,15.60
2018,04,22,16,58,15.60
2018,04,22,16,59,15.60
2018,04,22,17,00,15.60
2018,04,22,17,02,15.50
2018,04,22,17,03,15.60
2018,04,22,17,05,15.50
2018,04,22,17,06,15.50
2018,04,22,17,07,15.40
2018,04,22,17,08,15.40
2018,04,22,17,09,15.50
2018,04,22,17,10,15.50
2018,04,22,17,11,15.40
2018,04,22,17,12,15.40
2018,04,22,17,13,15.40
2018,04,22,17,14,15.30
2018,04,22,17,15,15.30
2018,04,22,17,16,15.30
2018,04,22,17,17,15.30
2018,04,22,17,20,15.30
2018,04,22,17,21,15.20
2018,04,22,17,23,15.20
2018,04,22,17,25,15.20
2018,04,22,17,26,15.20
2018,04,22,17,27,15.20
2018,04,22,17,28,15.20
2018,04,22,17,29,15.20
2018,04,22,17,30,15.20
2018,04,22,17,31,15.20
2018,04,22,17,33,15.10
2018,04,22,17,34,15.10
2018,04,22,17,36,15.10
2018,04,22,17,38,15.10
2018,04,22,17,39,15.10
2018,04,22,17,40,15.10
2018,04,22,17,42,15.10
2018,04,22,17,43,15.10
2018,04,22,17,44,15.10
2018,04,22,17,46,15.10
2018,04,22,17,47,15.00
2018,04,22,17,48,15.00
2018,04,22,17,49,15.00
2018,04,22,17,50,15.00
2018,04,22,17,51,14.90
2018,04,22,17,52,14.90
2018,04,22,17,53,14.90
2018,04,22,17,55,14.90
2018,04,22,17,56,14.90
2018,04,22,17,57,14.80
2018,04,22,17,58,14.80
2018,04,22,17,59,14.80
2018,04,22,18,00,14.80
2018,04,22,18,01,14.80
2018,04,22,18,02,14.80
2018,04,22,18,03,14.80
2018,04,22,18,04,14.80
2018,04,22,18,06,14.80
2018,04,22,18,07,14.70
2018,04,22,18,09,14.70
2018,04,22,18,10,14.70
2018,04,22,18,11,14.70
2018,04,22,18,13,14.70
2018,04,22,18,14,14.70
2018,04,22,18,15,14.70
2018,04,22,18,16,14.60
2018,04,22,18,17,14.60
2018,04,22,18,18,14.60
2018,04,22,18,19,14.60
2018,04,22,18,20,14.60
2018,04,22,18,21,14.60
2018,04,22,18,23,14.60
2018,04,22,18,24,14.60
2018,04,22,18,25,14.60
2018,04,22,18,26,14.70
2018,04,22,18,27,14.70
2018,04,22,18,28,14.70
2018,04,22,18,29,14.70
2018,04,22,18,31,14.60
2018,04,22,18,32,14.60
2018,04,22,18,34,14.70
2018,04,22,18,35,14.70
2018,04,22,18,36,14.70
2018,04,22,18,37,14.60
2018,04,22,18,39,14.60
2018,04,22,18,40,14.60
2018,04,22,18,42,14.60
2018,04,22,18,43,14.60
2018,04,22,18,44,14.50
2018,04,22,18,46,14.50
2018,04,22,18,47,14.50
2018,04,22,18,49,14.40
2018,04,22,18,51,14.40
2018,04,22,18,52,14.30
2018,04,22,18,54,14.30
2018,04,22,18,56,14.30
2018,04,22,18,58,14.30
2018,04,22,18,59,14.30
2018,04,22,19,01,14.20
2018,04,22,19,02,14.20
2018,04,22,19,03,14.20
2018,04,22,19,04,14.20
2018,04,22,19,05,14.20
2018,04,22,19,07,14.20
2018,04,22,19,08,14.20
2018,04,22,19,09,14.20
2018,04,22,19,12,14.20
2018,04,22,19,13,14.20
2018,04,22,19,14,14.20
2018,04,22,19,15,14.20
2018,04,22,19,17,14.20
2018,04,22,19,18,14.20
2018,04,22,19,19,14.20
2018,04,22,19,22,14.20
2018,04,22,19,23,14.20
2018,04,22,19,24,14.20
2018,04,22,19,25,14.20
2018,04,22,19,27,14.10
2018,04,22,19,28,14.10
2018,04,22,19,29,14.10
2018,04,22,19,30,14.10
2018,04,22,19,31,14.10
2018,04,22,19,32,14.10
2018,04,22,19,35,14.10
2018,04,22,19,36,14.00
2018,04,22,19,37,14.00
2018,04,22,19,38,14.00
2018,04,22,19,39,14.00
2018,04,22,19,40,13.90
2018,04,22,19,41,13.90
2018,04,22,19,42,13.90
2018,04,22,19,43,13.90
2018,04,22,19,44,13.90
2018,04,22,19,45,13.80
2018,04,22,19,46,13.80
2018,04,22,19,47,13.80
2018,04,22,19,48,13.80
2018,04,22,19,49,13.80
2018,04,22,19,50,13.70
2018,04,22,19,51,13.70
2018,04,22,19,53,13.70
2018,04,22,19,54,13.70
2018,04,22,19,56,13.60
2018,04,22,19,57,13.60
2018,04,22,19,58,13.60
2018,04,22,19,59,13.60
2018,04,22,20,00,13.60
2018,04,22,20,02,13.50
2018,04,22,20,03,13.50
2018,04,22,20,04,13.40
2018,04,22,20,05,13.40
2018,04,22,20,06,13.40
2018,04,22,20,07,13.40
2018,04,22,20,08,13.40
2018,04,22,20,09,13.30
2018,04,22,20,10,13.30
2018,04,22,20,11,13.30
2018,04,22,20,12,13.20
2018,04,22,20,13,13.20
2018,04,22,20,15,13.20
2018,04,22,20,17,13.20
2018,04,22,20,18,13.20
2018,04,22,20,19,13.10
2018,04,22,20,21,13.10
2018,04,22,20,22,13.10
2018,04,22,20,23,13.00
2018,04,22,20,25,12.90
2018,04,22,20,26,12.90
2018,04,22,20,28,12.90
2018,04,22,20,29,12.90
2018,04,22,20,30,12.80
2018,04,22,20,31,12.80
2018,04,22,20,32,12.80
2018,04,22,20,33,12.80
2018,04,22,20,34,12.80
2018,04,22,20,36,12.70
2018,04,22,20,37,12.70
2018,04,22,20,38,12.70
2018,04,22,20,39,12.70
2018,04,22,20,41,12.60
2018,04,22,20,43,12.60
2018,04,22,20,44,12.60
2018,04,22,20,45,12.50
2018,04,22,20,46,12.50
2018,04,22,20,47,12.50
2018,04,22,20,48,12.40
2018,04,22,20,50,12.40
2018,04,22,20,51,12.40
2018,04,22,20,52,12.30
2018,04,22,20,53,12.30
2018,04,22,20,55,12.20
2018,04,22,20,56,12.20
2018,04,22,20,57,12.10
2018,04,22,20,58,12.00
2018,04,22,20,59,12.00
2018,04,22,21,01,11.90
2018,04,22,21,03,11.80
2018,04,22,21,04,11.80
2018,04,22,21,05,11.70
2018,04,22,21,06,11.70
2018,04,22,21,07,11.60
2018,04,22,21,08,11.40
2018,04,22,21,09,11.40
2018,04,22,21,11,11.30
2018,04,22,21,12,11.20
2018,04,22,21,13,11.20
2018,04,22,21,14,11.10
2018,04,22,21,15,11.10
2018,04,22,21,16,11.00
2018,04,22,21,17,10.90
2018,04,22,21,18,10.90
2018,04,22,21,20,10.80
2018,04,22,21,23,10.70
2018,04,22,21,24,10.70
2018,04,22,21,26,10.60
2018,04,22,21,27,10.60
2018,04,22,21,29,10.40
2018,04,22,21,30,10.30
2018,04,22,21,31,10.30
2018,04,22,21,34,10.10
2018,04,22,21,37,9.90
2018,04,22,21,39,9.80
2018,04,22,21,40,9.80
2018,04,22,21,41,9.70
2018,04,22,21,42,9.70
2018,04,22,21,43,9.70
2018,04,22,21,44,9.60
2018,04,22,21,45,9.60
2018,04,22,21,46,9.50
2018,04,22,21,47,9.50
2018,04,22,21,48,9.40
2018,04,22,21,50,9.40
2018,04,22,21,51,9.40
2018,04,22,21,52,9.40
2018,04,22,21,53,9.30
2018,04,22,21,54,9.30
2018,04,22,21,55,9.30
2018,04,22,21,56,9.30
2018,04,22,21,58,9.20
2018,04,22,22,00,9.10
2018,04,22,22,01,9.10
2018,04,22,22,02,9.10
2018,04,22,22,03,9.00
2018,04,22,22,04,9.00
2018,04,22,22,06,8.90
2018,04,22,22,08,8.90
2018,04,22,22,09,8.90
2018,04,22,22,10,8.90
2018,04,22,22,12,8.80
2018,04,22,22,13,8.80
2018,04,22,22,14,8.80
2018,04,22,22,15,8.70
2018,04,22,22,16,8.70
2018,04,22,22,17,8.70
2018,04,22,22,18,8.60
2018,04,22,22,21,8.60
2018,04,22,22,22,8.60
2018,04,22,22,23,8.60
2018,04,22,22,24,8.50
2018,04,22,22,26,8.40
2018,04,22,22,28,8.40
2018,04,22,22,29,8.30
2018,04,22,22,30,8.30
2018,04,22,22,33,8.20
2018,04,22,22,35,8.20
2018,04,22,22,36,8.10
2018,04,22,22,37,8.00
2018,04,22,22,38,8.00
2018,04,22,22,39,7.90
2018,04,22,22,40,7.90
2018,04,22,22,41,7.90
2018,04,22,22,43,7.80
2018,04,22,22,46,7.80
2018,04,22,22,47,7.70
2018,04,22,22,48,7.70
2018,04,22,22,49,7.60
2018,04,22,22,50,7.60
2018,04,22,22,52,7.60
2018,04,22,22,53,7.50
2018,04,22,22,54,7.50
2018,04,22,22,55,7.40
2018,04,22,22,57,7.40
2018,04,22,22,58,7.40
2018,04,22,22,59,7.30
2018,04,22,23,00,7.30
2018,04,22,23,02,7.30
2018,04,22,23,03,7.30
2018,04,22,23,04,7.30
2018,04,22,23,05,7.20
2018,04,22,23,06,7.20
2018,04,22,23,08,7.10
2018,04,22,23,09,7.10
2018,04,22,23,10,7.10
2018,04,22,23,11,7.10
2018,04,22,23,13,7.00
2018,04,22,23,14,6.90
2018,04,22,23,15,6.90
2018,04,22,23,16,6.90
2018,04,22,23,19,6.80
2018,04,22,23,20,6.80
2018,04,22,23,21,6.70
2018,04,22,23,22,6.70
2018,04,22,23,23,6.70
2018,04,22,23,24,6.70
2018,04,22,23,26,6.60
2018,04,22,23,27,6.60
2018,04,22,23,28,6.50
2018,04,22,23,29,6.50
2018,04,22,23,30,6.50
2018,04,22,23,32,6.40
2018,04,22,23,33,6.40
2018,04,22,23,34,6.30
2018,04,22,23,35,6.30
2018,04,22,23,37,6.30
2018,04,22,23,38,6.20
2018,04,22,23,39,6.20
2018,04,22,23,40,6.20
2018,04,22,23,41,6.20
2018,04,22,23,42,6.10
2018,04,22,23,43,6.10
2018,04,22,23,45,6.10
2018,04,22,23,46,6.00
2018,04,22,23,47,6.00
2018,04,22,23,48,5.90
2018,04,22,23,49,5.90
2018,04,22,23,51,5.90
2018,04,22,23,52,5.80
2018,04,22,23,53,5.80
2018,04,22,23,54,5.80
2018,04,22,23,56,5.80
2018,04,22,23,57,5.80
2018,04,22,23,58,5.80
